Regional Weather Roundup
Issued by NWS

Home | Current Version | Previous Version | Graphics & Text | Print | Product List | Glossary Off
Versions: 1 2 3 4 5 6 7 8 9 10 11 12 13 14 15 16 17 18 19 20 21 22 23 24 25 26 27 28 29 30 31 32 33 34 35 36 37 38 39 40 41 42 43 44 45 46 47 48 49 50

000
ASUS43 KDTX 232210
RWRMI
MICHIGAN HOURLY REGIONAL WEATHER ROUNDUP
NATIONAL WEATHER SERVICE DETROIT/PONTIAC MI
500 PM EST FRI FEB 23 2018

NOTE: "FAIR" INDICATES FEW OR NO CLOUDS BELOW 12,000 FEET WITH NO
SIGNIFICANT WEATHER AND/OR OBSTRUCTION TO VISIBILITY.

MIZ047>049-052>055-059>063-066>070-074>076-081>083-232300-
SOUTHEAST LOWER MICHIGAN

CITY           SKY/WX    TMP DP  RH WIND       PRES   REMARKS
ADRIAN         CLOUDY    47  43  86 W9        30.16R
ALMA           CLOUDY    40  39  97 W9G17     30.11R WCI  34
ANN ARBOR      CLOUDY    46  43  89 SW13G22   30.13R
BAD AXE        CLOUDY    42  40  95 W17G24    30.05S
CARO           CLOUDY    43  41  92 W14G21    30.07R
DETROIT CITY   CLOUDY    48  43  82 W16G24    30.12R
DETROIT        CLOUDY    49  44  83 W14G22    30.12R
FLINT          CLOUDY    44  42  93 W14G22    30.10R
GROSSE ILE     CLOUDY    48  45  87 W12       30.12R
HILLSDALE      CLOUDY    43  41  93 W12       30.14R FOG
HOWELL         CLOUDY    44  43  95 W12G18    30.11R

CITY           SKY/WX    TMP DP  RH WIND       PRES   REMARKS
JACKSON        CLOUDY    44  42  93 SW10G22   30.13R
LAMBERTVILLE   CLOUDY    48  45  87 W15G22    30.14R
LANSING        CLOUDY    42  40  92 W16       30.13R
LAPEER         CLOUDY    45  43  93 W8        30.08R
MASON          CLOUDY    44  40  85 W12G18    30.13R
MONROE         CLOUDY    48  45  87 W16G24    30.13R
MT. CLEMENS    CLOUDY    48  48 100 W14       30.09R
PONTIAC        CLOUDY    45  43  93 W16G25    30.09R
PORT HOPE        N/A     42  39  89 W9G18     30.03R
PORT HURON     CLOUDY    46  43  87 W3        30.10R
TRI CITIES     CLOUDY    42  38  85 W17G25    30.09R
MIDLAND        CLOUDY    42  38  87 SW13      30.07S
TROY           CLOUDY    47  43  85 W9G16     30.12R
SAGINAW HB     CLOUDY    43  39  87 W16G24    30.08R
$$
MIZ043>046-050>051-056>058-064>065-071>073-077>080-232300-
SOUTHWEST LOWER MICHIGAN

CITY           SKY/WX    TMP DP  RH WIND       PRES   REMARKS
BATTLE CREEK   CLOUDY    41  39  93 W13       30.15R
BENTON HARBOR  CLOUDY    39  35  86 W14       30.22R WCI  31
BIG RAPIDS     CLOUDY    37  32  84 W12G22    30.11R WCI  29
COLDWATER      FOG       44  44 100 W8        30.16S VSB 3/4
FREMONT        CLOUDY    37  33  85 W10       30.15R FOG     WCI  29
HOLLAND        CLOUDY    39  36  89 W13       30.19R WCI  31
GRAND RAPIDS   CLOUDY    40  38  93 W14       30.15R FOG     WCI  32
IONIA          CLOUDY    41  39  92 W14G23    30.12R
KALAMAZOO      CLOUDY    41  38  89 W16G23    30.18R
LUDINGTON      CLOUDY    36  34  91 SW12      30.13R WCI  28
MARSHALL       CLOUDY    42  42  99 W12G23    30.15R
MOUNT PLEASANT CLOUDY    40  38  90 W15G21    30.08R WCI  32
MUSKEGON       CLOUDY    38  34  85 W10       30.18R WCI  31
SOUTH HAVEN    CLOUDY    39  37  91 W7        30.21R WCI  34
$$
MIZ016>042-232300-
NORTHERN LOWER MICHIGAN

CITY           SKY/WX    TMP DP  RH WIND       PRES   REMARKS
ALPENA         CLOUDY    41  38  89 W5        29.99S
BEAVER ISLAND  CLOUDY    35  33  92 SW12      30.02R WCI  26
BELLAIRE       CLOUDY    37  34  90 SW6       30.06R WCI  32
CADILLAC       CLOUDY    35  33  94 W14G25    30.05R WCI  25
CHARLEVOIX     CLOUDY    36  33  90 SW15      30.06R WCI  26
FRANKFORT      CLOUDY    38  35  87 SW9       30.09R WCI  32
GAYLORD        CLOUDY    35  34  96 W18G28    29.99R WCI  24
GRAYLING       CLOUDY    37  34  92 W9        30.02R WCI  30
HARBOR SPRINGS CLOUDY    34  33  99 W15G22    30.02R WCI  24
HOUGHTON LAKE  CLOUDY    37  34  89 W13G21    30.04R WCI  29
MANISTEE       CLOUDY    37  33  85 W10       30.12R WCI  30
OSCODA         CLOUDY    42  37  83 W12G21    30.01S
PELLSTON       CLOUDY    36  32  85 W18G28    30.01R WCI  26
ROGERS CITY    CLOUDY    38  35  87 W14G20    30.00R WCI  30
TRAVERSE CITY  CLOUDY    39  32  76 W15G21    30.06R WCI  31
$$
MIZ007>008-015-232300-
EASTERN UPPER MICHIGAN

CITY           SKY/WX    TMP DP  RH WIND       PRES   REMARKS
KINROSS        CLOUDY    35  33  92 W9        29.97R WCI  28
MACKINAC ISLAN CLOUDY    33  33  99 W14G24    29.99R WCI  24
NEWBERRY       LGT SNOW  34  33  96 W10       29.98R WCI  26
S. S. MARIE    CLOUDY    36  31  82 NW13      29.96R WCI  27
MUNISING         N/A     32  29  88 N15G26    30.02R WCI  22
$$
MIZ004>006-011>014-085-232300-
CENTRAL UPPER MICHIGAN

CITY           SKY/WX    TMP DP  RH WIND       PRES   REMARKS
MANISTIQUE     CLOUDY    35  34  94 CALM      30.01R
ESCANABA       CLOUDY    37  28  70 W14       30.03R WCI  28
MENOMINEE      CLOUDY    38  29  70 W8        30.08R WCI  32
SAWYER-GWINN   CLOUDY    32  25  74 W14G24    30.00R WCI  22
$$
MIZ001>003-009>011-084-232300-
WESTERN UPPER MICHIGAN

CITY           SKY/WX    TMP DP  RH WIND       PRES   REMARKS
IRON MOUNTAIN  CLOUDY    34  26  72 W17G26    30.02R WCI  23
HOUGHTON       FLURRIES  29  24  82 W17       30.02R WCI  17
COPPER HARBOR    N/A     30  26  85 N15G22    30.01R WCI  19
IRONWOOD       CLOUDY    29  22  75 W15       30.08R WCI  18
$$

ABBREVIATIONS USED IN REMARKS
   TC - TEMPERATURE IN CELSIUS
  WCI - WIND CHILL INDEX
   HX - HEAT INDEX
  VSB - VISIBILITY





USA.gov is the U.S. government's official web portal to all federal, state and local government web resources and services.